Location: Vancouver
(49.2500°N, 123.1330°W)
Time: 06:43:09
(UTC-07:00)

ISS - Visible Passes

Search period start: 29 March 2015 00:00
Search period end: 08 April 2015 00:00
Orbit: 396 x 406 km, 51.6° (Epoch: 29 March)

Date Brightness Start Highest point End Pass type
(mag) Time Alt. Az. Time Alt. Az. Time Alt. Az.
29 Mar -3.2 04:58:47 57° SSE 04:58:47 57° SSE 05:01:35 10° ESE visible
30 Mar -0.4 04:08:00 12° ESE 04:08:00 12° ESE 04:08:15 10° ESE visible
30 Mar -2.1 05:40:37 22° SW 05:41:07 23° SW 05:43:43 10° SSE visible
31 Mar -1.1 04:50:05 15° SSE 04:50:05 15° SSE 04:50:51 10° SE visible
03 Apr -0.6 21:57:53 10° SW 21:58:03 11° SW 21:58:03 11° SW visible
04 Apr -2.2 21:04:50 10° SSW 21:07:32 24° SE 21:07:49 24° SE visible
04 Apr -0.3 22:40:24 10° WSW 22:40:27 10° WSW 22:40:27 10° WSW visible
05 Apr -3.4 21:46:51 10° WSW 21:49:52 65° S 21:49:52 65° S visible
06 Apr -2.9 20:53:25 10° SW 20:56:32 43° SSE 20:59:00 15° E visible
06 Apr -1.7 22:29:38 10° W 22:31:37 32° W 22:31:37 32° W visible
07 Apr -3.3 21:35:55 10° WSW 21:39:11 80° NNW 21:40:30 34° ENE visible
07 Apr -0.3 23:12:34 10° WNW 23:13:04 14° WNW 23:13:04 14° WNW visible
